Hourly Data Report for July 08, 2020

TORONTO CITY
ONTARIO
Current Station Operator: ECCC - MSC

43°40'00.000" N
79°24'00.000" W
112.50 m
6158355
71508
XTO

Download Data

Hourly Data (July 2020)
Hourly Data Report for July 8, 2020
TIME
LST
Temp Definition
°C
Dew Point Definition
°C
Rel Hum Definition
%
Precip. Amount Definition
mm

Wind Dir Definition
10's deg

Wind Spd Definition
km/h
Visibility Definition
km
Stn Press Definition
kPa
Hmdx Definition


Wind Chill Definition


Weather Definition


00:00 26.6 19.2 64 0.0       99.96 34   LegendNANA
01:00 25.7 18.4 64 0.0       99.95 32   LegendNANA
02:00 25.2 19.0 69 0.0       99.97 32   LegendNANA
03:00 25.8 19.7 69 0.0       99.96 33   LegendNANA
04:00 24.7 19.6 73 0.0       100.00 32   LegendNANA
05:00 24.0 19.6 76 0.0       100.01 31   LegendNANA
06:00 24.4 19.5 74 0.0       100.02 32   LegendNANA
07:00 26.0 20.0 70 0.0       100.04 34   LegendNANA
08:00 27.3 18.6 59 0.0       100.05 34   LegendNANA
09:00 28.3 18.5 55 0.0       100.04 35   LegendNANA
10:00 29.6 18.8 52 0.0       100.03 36   LegendNANA
11:00 30.4 17.4 46 0.0       100.09 36   LegendNANA
12:00 32.1 16.2 39 0.0       100.06 37   LegendNANA
13:00 32.6 16.3 38 0.0       99.98 37   LegendNANA
14:00 24.3 16.0 60 3.0       100.04 29   LegendNANA
15:00 22.6 19.9 84 11.6       99.87 30   LegendNANA
16:00 28.4 20.4 62 0.0       99.86 36   LegendNANA
17:00 28.7 20.5 62 0.0       99.83 37   LegendNANA
18:00 28.8 18.0 52 0.2       99.80 35   LegendNANA
19:00 28.4 19.2 58 0.0       99.76 35   LegendNANA
20:00 27.1 18.4 59 0.0       99.81 33   LegendNANA
21:00 25.7 18.4 64 0.0       99.89 32   LegendNANA
22:00 25.3 18.4 66 0.0       99.96 32   LegendNANA
23:00 24.9 18.2 66 0.0       99.95 31   LegendNANA

Notes on Data Quality.

Legend

  • E = Estimated
  • M = Missing
  • NA = Not Available*
  • [empty] = Indicates an unobserved value
Date modified: